• Join FlightAware (Why Join?)
  • Login
  • US Flag 
10:14AM EDT


 

Airport Tracker/Info


-or-


 

Live Flight TrackerFlight Track Log ✈ JST626 ✈ 24-Apr-2013 ✈ YMAV / AVV - YSSY / SYD

Flight Track Log - Related Links

Times and Time Zones

All times are in EDT time to prevent confusion due to time zone crossing. See the JST626 flight status page for this flight to view local times or setup timezone preferences in your user account.

Time Position Orientation Groundspeed Altitude Reporting Facility
EDT Latitude Longitude Course Direction KTS MPH feet Rate Location/Type
07:02AM -38.0280 144.4730 101° East 6 7  Level FlightAware
07:02AM -38.0290 144.4740 142° Southeast 9 10 300 Level FlightAware
07:05AM -37.8295 144.6738 38° Northeast  Level FlightAware Approximate
07:06AM -37.7393 144.7635 38° Northeast  Level FlightAware Approximate
07:07AM -37.6491 144.8531 38° Northeast  Level FlightAware Approximate
07:07AM -38.0390 144.4700 38° Northeast 26 30  Level FlightAware
07:08AM -38.0460 144.4670 199° South 9 10 1,020 Level FlightAware
07:10AM -37.8748 144.6341 38° Northeast  Level FlightAware Approximate
07:10AM -37.9919 144.4910 38° Northeast 148 170 2,600  Level Aus ATC (RADAR)
07:10AM -37.9930 144.4910 38° Northeast 151 174 2,400 960 Descending FlightAware
07:10AM -37.9700 144.5230 48° Northeast 191 220 3,400 1,200 Climbing FlightAware
07:11AM -37.9530 144.5460 47° Northeast 222 255 3,800 1,020 Climbing FlightAware
07:11AM -37.9410 144.5630 48° Northeast 250 288 4,100 2,100 Climbing FlightAware
07:12AM -37.9150 144.5910 40° Northeast 274 315 5,200 3,240 Climbing FlightAware
07:12AM -37.8842 144.6212 40° Northeast 287 330 6,900 3,000 Climbing Aus ATC (RADAR)
07:12AM -37.8860 144.6200 40° Northeast 287 330 6,700 2,640 Descending FlightAware
07:13AM -37.8530 144.6530 38° Northeast 295 339 8,400 3,480 Climbing FlightAware
07:13AM -37.8245 144.6801 38° Northeast 304 350 9,700 2,580 Climbing Aus ATC (RADAR)
07:13AM -37.8210 144.6840 38° Northeast 312 359 9,700 1,680 Level FlightAware
07:14AM -37.7720 144.7320 38° Northeast 335 386 11,100 1,860 Climbing FlightAware
07:14AM -37.7210 144.7820 38° Northeast 367 422 12,200 2,520 Climbing FlightAware
07:15AM -37.6914 144.8114 38° Northeast 373 429 13,500 3,480 Climbing Aus ATC (RADAR)
07:15AM -37.6708 144.8313 38° Northeast 375 432 14,000 1,620 Climbing Aus ATC (RADAR)
07:15AM -37.6570 144.8480 38° Northeast 378 435 14,300 2,220 Climbing FlightAware
07:15AM -37.6294 144.8907 38° Northeast 388 447 15,300 1,860 Climbing Aus ATC (RADAR)
07:16AM -37.6220 144.9030 38° Northeast 395 455 15,400 2,160 Climbing FlightAware
07:16AM -37.5726 144.9839 38° Northeast 405 466 17,100 2,160 Climbing Aus ATC (RADAR)
07:17AM -37.5620 145.0010 38° Northeast 405 466 17,200 1,680 Climbing FlightAware
07:17AM -37.5318 145.0504 38° Northeast 414 476 18,100 1,800 Climbing Aus ATC (RADAR)
07:17AM -37.5160 145.0770 38° Northeast 424 488 18,400 1,800 Climbing FlightAware
07:18AM -37.4570 145.1710 52° Northeast 427 491 20,100 2,400 Climbing FlightAware
07:18AM -37.4344 145.2077 52° Northeast 431 496 20,800 1,560 Climbing Aus ATC (RADAR)
07:18AM -37.4190 145.2330 52° Northeast 442 509 20,900 1,500 Climbing FlightAware
07:19AM -37.3904 145.2789 52° Northeast 442 509 21,700 1,500 Climbing Aus ATC (RADAR)
07:19AM -37.3530 145.3390 52° Northeast 449 517 22,300 1,740 Climbing FlightAware
07:20AM -37.3195 145.3927 52° Northeast 452 520 23,300 2,400 Climbing Aus ATC (RADAR)
07:20AM -37.3001 145.4241 52° Northeast 454 522 23,700 360 Climbing Aus ATC (RADAR)
07:20AM -37.3040 145.4180 52° Northeast 452 520 23,400 1,500 Descending FlightAware
07:21AM -37.2543 145.4974 52° Northeast 459 528 24,600 1,440 Climbing Aus ATC (RADAR)
07:21AM -37.2460 145.5110 52° Northeast 459 528 24,500 1,320 Descending FlightAware
07:21AM -37.1876 145.6038 52° Northeast 468 539 25,700 1,260 Climbing Aus ATC (RADAR)
07:22AM -37.1680 145.6360 52° Northeast 474 545 25,800 1,320 Climbing FlightAware
07:22AM -37.1401 145.6794 52° Northeast 474 545 26,500 1,380 Climbing Aus ATC (RADAR)
07:22AM -37.1230 145.7070 52° Northeast 475 547 26,500 1,200 Level FlightAware
07:23AM -37.0630 145.8030 52° Northeast 475 547 27,700 1,680 Climbing FlightAware
07:23AM -37.0374 145.8427 52° Northeast 480 552 28,200 1,560 Climbing Aus ATC (RADAR)
07:23AM -37.0167 145.8756 52° Northeast 482 555 28,500 360 Climbing Aus ATC (RADAR)
07:24AM -37.0000 145.9030 52° Northeast 489 563 28,400 840 Descending FlightAware
07:24AM -36.9674 145.9535 52° Northeast 489 563 29,000 1,320 Climbing Aus ATC (RADAR)
07:24AM -36.9380 146.0010 52° Northeast 491 565 29,400 1,560 Climbing FlightAware
07:25AM -36.8827 146.0856 52° Northeast 488 562 30,600 1,320 Climbing Aus ATC (RADAR)
07:25AM -36.8860 146.0820 52° Northeast 482 555 30,300 1,500 Descending FlightAware
07:25AM -36.8550 146.1295 52° Northeast 485 558 31,100 1,620 Climbing Aus ATC (RADAR)
07:26AM -36.8250 146.1780 52° Northeast 477 549 31,400 1,260 Climbing FlightAware
07:27AM -36.7660 146.2710 52° Northeast 469 540 32,600 1,740 Climbing FlightAware
07:27AM -36.7113 146.3548 52° Northeast 469 540 33,700 1,320 Climbing Aus ATC (RADAR)
07:27AM -36.7130 146.3540 52° Northeast 470 541 33,500 660 Descending FlightAware
07:28AM -36.6510 146.4500 51° Northeast 471 542 34,300 1,200 Climbing FlightAware
07:28AM -36.6088 146.5131 51° Northeast 471 542 34,900 1,200 Climbing Aus ATC (RADAR)
07:29AM -36.5886 146.5451 52° Northeast 470 541 35,100  Climbing Aus ATC (RADAR)
07:29AM -36.5790 146.5620 52° Northeast 470 541 34,900 300 Descending FlightAware
07:29AM -36.5405 146.6203 52° Northeast 475 547 35,300 120 Climbing Aus ATC (RADAR)
07:30AM -36.5100 146.6690 52° Northeast 477 549 35,000  Descending FlightAware
07:30AM -36.4573 146.7470 52° Northeast 470 541 35,300  Climbing Aus ATC (RADAR)
07:30AM -36.4650 146.7390 52° Northeast 468 539 35,000  Descending FlightAware
07:31AM -36.4094 146.8212 52° Northeast 470 541 35,300  Climbing Aus ATC (RADAR)
07:31AM -36.4030 146.8340 52° Northeast 469 540 35,000 -360 Descending FlightAware
07:32AM -36.3410 146.9300 51° Northeast 467 537 35,000 120 Level FlightAware
07:32AM -36.2794 147.0206 51° Northeast 467 537 35,200  Climbing Aus ATC (RADAR)
07:32AM -36.2850 147.0150 51° Northeast 467 537 35,000 -300 Descending FlightAware
07:33AM -36.2220 147.1120 51° Northeast 468 539 35,000 240 Level FlightAware
07:33AM -36.1897 147.1572 51° Northeast 471 542 35,300  Climbing Aus ATC (RADAR)
07:34AM -36.1720 147.1870 51° Northeast 470 541 35,000 -240 Descending FlightAware
07:34AM -36.1110 147.2800 51° Northeast 467 537 35,100 240 Climbing FlightAware
07:35AM -36.0731 147.3357 51° Northeast 468 539 35,300 300 Climbing Aus ATC (RADAR)
07:35AM -36.0528 147.3673 52° Northeast 467 537 35,300 -900 Level Aus ATC (RADAR)
07:35AM -36.0580 147.3610 52° Northeast 467 537 35,000  Descending FlightAware
07:36AM -36.0041 147.4391 52° Northeast 465 535 35,300  Climbing Aus ATC (RADAR)
07:36AM -35.9980 147.4520 52° Northeast 466 536 35,000 -360 Descending FlightAware
07:37AM -35.9360 147.5440 50° Northeast 464 534 35,000 180 Level FlightAware
07:37AM -35.8807 147.6251 50° Northeast 464 534 35,300  Climbing Aus ATC (RADAR)
07:37AM -35.8800 147.6290 50° Northeast 464 534 35,000 -420 Descending FlightAware
07:38AM -35.8260 147.7100 51° Northeast 464 534 35,000 180 Level FlightAware
07:38AM -35.7917 147.7591 51° Northeast 464 534 35,200  Climbing Aus ATC (RADAR)
07:39AM -35.7770 147.7830 51° Northeast 464 534 35,000  Descending FlightAware
07:39AM -35.7296 147.8519 51° Northeast 467 537 35,200  Climbing Aus ATC (RADAR)
07:39AM -35.7080 147.8860 51° Northeast 467 537 35,000 -180 Descending FlightAware
07:40AM -35.6450 147.9800 51° Northeast 468 539 35,000 60 Level FlightAware
07:41AM -35.5890 148.0640 51° Northeast 469 540 35,100 60 Climbing FlightAware
07:41AM -35.5320 148.1490 51° Northeast 467 537 35,100 -120 Level FlightAware
07:42AM -35.4700 148.2410 50° Northeast 466 536 35,000 -120 Descending FlightAware
07:43AM -35.4130 148.3240 50° Northeast 467 537 35,000 120 Level FlightAware
07:43AM -35.3641 148.4016 50° Northeast 468 539 35,200  Climbing Aus ATC (RADAR)
07:44AM -35.3610 148.4090 50° Northeast 471 542 35,000  Descending FlightAware
07:44AM -35.3050 148.4988 50° Northeast 470 541 35,200  Climbing Aus ATC (RADAR)
07:44AM -35.3030 148.5030 50° Northeast 476 548 35,000 -300 Descending FlightAware
07:45AM -35.2490 148.5880 52° Northeast 477 549 35,000 180 Level FlightAware
07:45AM -35.2111 148.6480 52° Northeast 472 543 35,200  Climbing Aus ATC (RADAR)
07:46AM -35.1860 148.6880 52° Northeast 477 549 35,000 -240 Descending FlightAware
07:46AM -35.1340 148.7710 53° Northeast 477 549 35,000 120 Level FlightAware
07:47AM -35.0902 148.8396 53° Northeast 470 541 35,200  Climbing Aus ATC (RADAR)
07:47AM -35.0720 148.8680 53° Northeast 474 545 35,000  Descending FlightAware
07:47AM -35.0432 148.9132 53° Northeast 468 539 35,200  Climbing Aus ATC (RADAR)
07:48AM -35.0190 148.9520 53° Northeast 474 545 35,000  Descending FlightAware
07:48AM -34.9754 149.0190 53° Northeast 468 539 35,200 -300 Climbing Aus ATC (RADAR)
07:48AM -34.9640 149.0370 53° Northeast 470 541 34,800 -960 Descending FlightAware
07:49AM -34.9159 149.1111 53° Northeast 453 521 34,500 -1,080 Descending Aus ATC (RADAR)
07:49AM -34.9060 149.1270 53° Northeast 449 517 34,000 -1,860 Descending FlightAware
07:50AM -34.8540 149.2070 52° Northeast 439 505 32,900 -1,500 Descending FlightAware
07:50AM -34.8273 149.2477 52° Northeast 430 495 32,600 -1,740 Descending Aus ATC (RADAR)
07:51AM -34.7990 149.2900 52° Northeast 427 491 31,600 -2,100 Descending FlightAware
07:51AM -34.7530 149.3610 52° Northeast 419 482 30,300 -2,040 Descending FlightAware
07:52AM -34.7244 149.4054 52° Northeast 409 471 29,700 -1,980 Descending Aus ATC (RADAR)
07:52AM -34.7030 149.4390 52° Northeast 407 468 29,000 -2,040 Descending FlightAware
07:53AM -34.6510 149.5190 52° Northeast 396 456 27,400 -1,980 Descending FlightAware
07:53AM -34.6060 149.5880 52° Northeast 392 451 26,200 -1,740 Descending FlightAware
07:54AM -34.5814 149.6242 52° Northeast 383 441 25,800 -1,380 Descending Aus ATC (RADAR)
07:54AM -34.5600 149.6560 52° Northeast 384 442 25,300 -1,500 Descending FlightAware
07:55AM -34.5090 149.7300 50° Northeast 376 433 24,100 -1,620 Descending FlightAware
07:55AM -34.4800 149.7710 50° Northeast 368 423 23,500 -1,680 Descending Aus ATC (RADAR)
07:55AM -34.4640 149.7940 50° Northeast 373 429 23,000 -1,620 Descending FlightAware
07:56AM -34.4426 149.8524 50° Northeast 363 418 22,300 -1,800 Descending Aus ATC (RADAR)
07:56AM -34.4440 149.8510 50° Northeast 376 433 22,100 -1,740 Descending FlightAware
07:57AM -34.4250 149.9170 71° East 371 427 21,200 -1,620 Descending FlightAware
07:57AM -34.4010 149.9990 70° East 365 420 20,100 -1,500 Descending FlightAware
07:58AM -34.3770 150.0850 71° East 355 409 19,100 -1,440 Descending FlightAware
07:58AM -34.3615 150.1417 71° East 341 392 18,400 -1,800 Descending Aus ATC (RADAR)
07:59AM -34.3560 150.1600 71° East 355 409 17,900 -2,040 Descending FlightAware
07:59AM -34.3534 150.1701 71° East 344 396 17,900 -1,140 Level Aus ATC (RADAR)
07:59AM -34.3381 150.2253 71° East 337 388 17,300 -1,560 Descending Aus ATC (RADAR)
07:59AM -34.3330 150.2430 71° East 347 399 16,800 -1,740 Descending FlightAware
08:00AM -34.3130 150.3150 71° East 342 394 15,800 -1,380 Descending FlightAware
08:00AM -34.3023 150.3524 71° East 328 377 15,500 -1,380 Descending Aus ATC (RADAR)
08:01AM -34.2920 150.3900 71° East 333 383 14,900 -1,500 Descending FlightAware
08:01AM -34.2640 150.4660 66° East 320 368 13,800 -1,260 Descending FlightAware
08:02AM -34.2516 150.4947 66° East 311 358 13,600 -1,200 Descending Aus ATC (RADAR)
08:02AM -34.2390 150.5230 66° East 314 361 13,000 -1,500 Descending FlightAware
08:02AM -34.2200 150.5648 66° East 308 354 12,500 -1,380 Descending Aus ATC (RADAR)
08:03AM -34.1910 150.6300 66° East 312 359 11,400 -1,320 Descending FlightAware
08:04AM -34.1719 150.6722 66° East 301 346 11,000 -1,440 Descending Aus ATC (RADAR)
08:04AM -34.1418 150.7390 61° Northeast 294 338 9,800 -1,680 Descending Aus ATC (RADAR)
08:04AM -34.1430 150.7360 61° Northeast 301 346 9,700 -1,500 Descending FlightAware
08:05AM -34.1230 150.7800 61° Northeast 292 336 9,000 -1,200 Descending FlightAware
08:05AM -34.1091 150.8116 61° Northeast 285 328 8,800 -1,200 Descending Aus ATC (RADAR)
08:05AM -34.1070 150.8160 61° Northeast 289 333 8,500 -1,620 Descending FlightAware
08:06AM -34.0970 150.8390 62° Northeast 288 331 8,200 -1,620 Descending FlightAware
08:06AM -34.0838 150.8864 62° Northeast 285 328 7,400 -1,800 Descending Aus ATC (RADAR)
08:06AM -34.0840 150.8830 62° Northeast 297 342 7,300 -1,320 Descending FlightAware
08:06AM -34.0870 150.8990 103° East 294 338 7,100 -1,200 Descending FlightAware
08:07AM -34.0970 150.9210 119° Southeast 280 322 6,800 -1,020 Descending FlightAware
08:07AM -34.1159 150.9554 119° Southeast 274 315 6,500 -1,020 Descending Aus ATC (RADAR)
08:07AM -34.1190 150.9610 119° Southeast 277 319 6,300 -1,680 Descending FlightAware
08:07AM -34.1350 150.9920 122° Southeast 271 312 5,600 -1,980 Descending FlightAware
08:08AM -34.1480 151.0320 111° Southeast 272 313 4,500 -2,160 Descending FlightAware
08:08AM -34.1520 151.0520 104° East 272 313 4,000 -1,800 Descending FlightAware
08:09AM -34.1590 151.0940 101° East 257 296 3,300 -1,080 Descending FlightAware
08:09AM -34.1630 151.1200 101° East 240 276 3,100 -240 Descending FlightAware
08:09AM -34.1646 151.1353 101° East 235 270 3,200 -420 Climbing Aus ATC (RADAR)
08:10AM -34.1607 151.1724 101° East 216 249 2,900 -720 Descending Aus ATC (RADAR)
08:10AM -34.1610 151.1690 101° East 215 247 2,800 -1,020 Descending FlightAware
08:10AM -34.1570 151.1920 78° East 209 241 2,500 -480 Descending FlightAware
08:10AM -34.1261 151.2128 78° East 209 241 2,400 -180 Descending Aus ATC (RADAR)
08:11AM -34.1121 151.2163 12° North 207 238 2,400 -300 Level Aus ATC (RADAR)
08:11AM -34.0840 151.2115 352° North 204 235 2,200 -840 Descending Aus ATC (RADAR)
08:12AM -34.0380 151.2000 352° North 170 196 1,300 -840 Descending FlightAware
08:13AM -34.0080 151.1921 352° North 154 177 900 -720 Descending Aus ATC (RADAR)
08:14AM -33.9722 151.1828 348° North 144 166 200 -840 Descending Aus ATC (RADAR)
08:15AM -33.9490 151.1770 348° North 49 56 -240 Descending FlightAware
08:16AM -33.9400 151.1760 355° North 25 29  Level FlightAware
08:17AM -33.9360 151.1760 360° North 2 2  Level FlightAware
08:18AM -33.9360 151.1770 90° East 4 5  Level FlightAware
08:20AM -33.9460 151.1771 225° Southwest  Level FlightAware Approximate
08:21AM -33.9461 151.1772 225° Southwest  Level Estimated
08:22AM -33.9461 151.1772 225° Southwest  Level Estimated
08:23AM -33.9461 151.1772 225° Southwest  Level Estimated
08:24AM -33.9461 151.1772 225° Southwest  Level Estimated
08:25AM -33.9461 151.1772 225° Southwest  Level Estimated